Weather History for PAHO - December, 2012

Change the Weather History Date:

Sunday, December 16, 2012

  Actual Average Record
Temperature  
Mean Temperature 12 °F -  
Max Temperature 18 °F 31 °F 46 °F (1944)
Min Temperature 6 °F 19 °F -8 °F (1942)
Degree Days  
Heating Degree Days 53    
Moisture  
Dew Point -5 °F    
Average Humidity 50    
Maximum Humidity 67    
Minimum Humidity 36    
Precipitation  
Precipitation 0.00 in - - ()
Sea Level Pressure  
Sea Level Pressure 29.51 in    
Wind  
Wind Speed 2 mph (NE)    
Max Wind Speed 10 mph    
Max Gust Speed -    
Visibility 10 miles    
Events      
Averages and records for this station are not official NWS values.
T = Trace of Precipitation, MM = Missing Value Source: NWS Daily Summary

Daily Weather History Graph

Daily Weather History Graph

Search for Another Location

Airport or City:

Trip Planner

Search our weather history database for the weather conditions in past years. The results will help you decide how hot, cold, wet, or windy it might be!

Date:

Astronomy

Dec. 16, 2012 Rise Set
Actual Time 10:01 AM AKST 4:02 PM AKST
Civil Twilight 9:05 AM AKST 4:58 PM AKST
Nautical Twilight 8:09 AM AKST 5:54 PM AKST
Astronomical Twilight 7:18 AM AKST 6:45 PM AKST
Moon 11:47 AM AKST (12/16) 9:29 PM AKST (12/16)
Length of Visible Light 7h 53m
Length of Day
6h 00m
Waxing Crescent, 17% of the Moon is Illuminated
Dec 16
Waxing Crescent
Dec 19
First Quarter
Dec 28
Full
Jan 4
Last Quarter
Jan 11
New

Hourly Weather History & Observations

Time (AKST) Temp. Windchill Dew Point Humidity Pressure Visibility Wind Dir Wind Speed Gust Speed Precip Events Conditions
12:53 AM 15.1 °F - -2.0 °F 47% 29.33 in 10.0 mi Calm Calm - N/A   Clear
1:53 AM 12.9 °F - -2.9 °F 49% 29.33 in 10.0 mi Calm Calm - N/A   Clear
3:53 AM 10.0 °F -3.7 °F -4.0 °F 53% 29.37 in 10.0 mi ENE 10.4 mph - N/A   Clear
4:53 AM 12.0 °F 1.5 °F -4.0 °F 49% 29.37 in 10.0 mi ENE 6.9 mph - N/A   Clear
5:53 AM 15.1 °F - -8.0 °F 36% 29.40 in 10.0 mi Calm Calm - N/A   Clear
6:53 AM 10.9 °F - -6.0 °F 47% 29.42 in 10.0 mi Calm Calm - N/A   Clear
7:53 AM 6.1 °F - -2.9 °F 67% 29.44 in 10.0 mi Calm Calm - N/A   Clear
8:53 AM 6.1 °F - -2.9 °F 67% 29.47 in 10.0 mi Calm Calm - N/A   Clear
9:53 AM 6.1 °F -0.9 °F -2.9 °F 67% 29.48 in 10.0 mi North 3.5 mph - N/A   Clear
10:53 AM 6.1 °F - -4.0 °F 63% 29.49 in 9.0 mi Calm Calm - N/A   Clear
11:53 AM 16.0 °F - -4.0 °F 41% 29.51 in 10.0 mi Calm Calm - N/A   Partly Cloudy
12:53 PM 17.1 °F - -6.0 °F 36% 29.52 in 10.0 mi Calm Calm - N/A   Clear
1:53 PM 18.0 °F - -4.0 °F 38% 29.53 in 10.0 mi Calm Calm - N/A   Clear
2:53 PM 16.0 °F 7.4 °F -5.1 °F 39% 29.54 in 10.0 mi East 5.8 mph - N/A   Clear
3:53 PM 15.1 °F 6.4 °F -6.0 °F 39% 29.56 in 10.0 mi NE 5.8 mph - N/A   Clear
4:53 PM 14.0 °F 6.5 °F -8.0 °F 37% 29.57 in 10.0 mi NE 4.6 mph - N/A   Clear
5:53 PM 12.9 °F 6.9 °F -9.0 °F 37% 29.59 in 10.0 mi ENE 3.5 mph - N/A   Clear
6:53 PM 10.0 °F - -8.0 °F 44% 29.61 in 10.0 mi Calm Calm - N/A   Clear
7:53 PM 7.0 °F 0.1 °F -7.1 °F 53% 29.63 in 10.0 mi North 3.5 mph - N/A   Clear
8:53 PM 10.9 °F - -5.1 °F 49% 29.64 in 10.0 mi Calm Calm - N/A   Clear
9:53 PM 6.1 °F -4.3 °F -5.1 °F 60% 29.66 in 10.0 mi NE 5.8 mph - N/A   Clear
10:53 PM 6.1 °F - -4.0 °F 63% 29.67 in 10.0 mi Calm Calm - N/A   Clear
11:53 PM 6.1 °F -2.8 °F -5.1 °F 60% 29.68 in 10.0 mi NNE 4.6 mph - N/A   Clear